TimeMST,TemperatureF,Dew PointF,Humidity,Sea Level PressureIn,VisibilityMPH,Wind Direction,Wind SpeedMPH,Gust SpeedMPH,PrecipitationIn,Events,Conditions,WindDirDegrees,DateUTC
12:51 AM,33.1,30.0,89,29.89,10.0,Calm,Calm,-,N/A,,Overcast,0,2012-12-31 07:51:00
1:16 AM,33.8,30.2,87,29.91,10.0,Calm,Calm,-,N/A,,Overcast,0,2012-12-31 08:16:00
1:51 AM,33.1,30.9,92,29.88,10.0,Calm,Calm,-,N/A,,Overcast,0,2012-12-31 08:51:00
2:26 AM,33.8,30.2,87,29.92,10.0,Calm,Calm,-,N/A,,Overcast,0,2012-12-31 09:26:00
2:51 AM,33.1,30.0,89,29.91,10.0,Calm,Calm,-,N/A,,Overcast,0,2012-12-31 09:51:00
3:12 AM,33.8,30.2,87,29.92,10.0,Calm,Calm,-,N/A,,Overcast,0,2012-12-31 10:12:00
3:51 AM,32.0,30.9,96,29.88,8.0,SE,6.9,-,N/A,,Mostly Cloudy,130,2012-12-31 10:51:00
4:01 AM,32.0,30.2,93,29.88,8.0,ESE,5.8,-,N/A,,Scattered Clouds,120,2012-12-31 11:01:00
4:51 AM,30.9,30.0,96,29.88,6.0,South,6.9,-,N/A,,Mostly Cloudy,170,2012-12-31 11:51:00
5:16 AM,30.2,30.2,100,29.91,5.0,SSW,6.9,-,N/A,,Overcast,210,2012-12-31 12:16:00
5:51 AM,30.9,30.0,96,29.91,4.0,South,9.2,-,N/A,,Overcast,190,2012-12-31 12:51:00
6:34 AM,30.2,30.2,100,29.90,0.2,South,8.1,-,N/A,,Overcast,180,2012-12-31 13:34:00
6:51 AM,30.0,30.0,100,29.91,0.2,South,9.2,-,N/A,,Overcast,170,2012-12-31 13:51:00
7:51 AM,30.9,30.9,100,29.93,0.2,South,9.2,-,N/A,Fog,Light Freezing Fog,180,2012-12-31 14:51:00
8:36 AM,32.0,32.0,100,29.94,0.2,South,4.6,-,N/A,Fog,Fog,190,2012-12-31 15:36:00
8:48 AM,33.8,32.0,93,29.95,6.0,South,4.6,-,N/A,,Scattered Clouds,170,2012-12-31 15:48:00
8:51 AM,34.0,32.0,92,29.94,7.0,South,4.6,-,N/A,,Scattered Clouds,170,2012-12-31 15:51:00
9:51 AM,43.0,34.0,71,29.93,10.0,SSE,12.7,-,N/A,,Clear,160,2012-12-31 16:51:00
10:51 AM,48.0,34.0,58,29.89,10.0,Variable,3.5,-,N/A,,Clear,0,2012-12-31 17:51:00
11:51 AM,53.1,24.1,32,29.84,10.0,West,24.2,31.1,N/A,,Partly Cloudy,260,2012-12-31 18:51:00
12:51 PM,54.0,19.9,26,29.81,10.0,West,25.3,33.4,N/A,,Partly Cloudy,260,2012-12-31 19:51:00
1:51 PM,54.0,19.0,25,29.83,10.0,West,19.6,-,N/A,,Clear,260,2012-12-31 20:51:00
3:51 PM,51.1,19.9,29,29.88,10.0,West,18.4,27.6,N/A,,Clear,270,2012-12-31 22:51:00
4:51 PM,46.9,21.9,37,29.91,10.0,West,10.4,-,N/A,,Clear,260,2012-12-31 23:51:00
5:51 PM,42.1,25.0,51,29.95,10.0,West,9.2,-,N/A,,Clear,260,2013-01-01 00:51:00
6:51 PM,37.0,24.1,59,29.98,10.0,West,5.8,-,N/A,,Clear,270,2013-01-01 01:51:00
7:51 PM,35.1,24.1,64,30.00,10.0,West,9.2,-,N/A,,Clear,260,2013-01-01 02:51:00
8:51 PM,34.0,24.1,67,30.01,10.0,NW,8.1,-,N/A,,Clear,320,2013-01-01 03:51:00
9:51 PM,33.1,24.1,70,30.01,10.0,WNW,4.6,-,N/A,,Clear,290,2013-01-01 04:51:00
10:51 PM,27.0,21.9,81,30.02,10.0,Calm,Calm,-,N/A,,Clear,0,2013-01-01 05:51:00
11:51 PM,26.1,21.0,81,30.02,10.0,Calm,Calm,-,N/A,,Clear,0,2013-01-01 06:51:00